Time,TemperatureF,DewpointF,PressureIn,WindDirection,WindDirectionDegrees,WindSpeedMPH,WindSpeedGustMPH,Humidity,HourlyPrecipIn,Conditions,Clouds,dailyrainin,SoftwareType,DateUTC
2013-02-13 00:00:00,76.5,51.0,27.08,SE,137,3.6,3.6,32,0.00,,---,0.00,VWS V14.01,2013-02-13 06:00:00,
2013-02-13 00:05:00,76.5,51.0,27.08,East,89,2.7,2.7,32,0.00,,---,0.04,VWS V14.01,2013-02-13 06:05:00,
2013-02-13 00:10:00,76.5,51.0,27.08,ESE,108,5.4,5.4,32,0.00,,---,0.00,VWS V14.01,2013-02-13 06:10:00,
2013-02-13 00:15:00,76.5,51.0,27.08,East,89,3.1,3.1,32,0.00,,---,0.00,VWS V14.01,2013-02-13 06:15:00,
2013-02-13 00:20:00,76.5,51.0,27.08,South,189,3.6,4.9,32,0.00,,---,0.00,VWS V14.01,2013-02-13 06:20:00,
2013-02-13 00:25:00,76.5,51.0,27.08,South,188,3.1,3.1,32,0.00,,---,0.00,VWS V14.01,2013-02-13 06:25:00,
2013-02-13 00:30:00,76.5,51.0,27.08,East,91,3.6,8.7,32,0.00,,---,0.00,VWS V14.01,2013-02-13 06:30:00,
2013-02-13 00:35:00,76.5,51.0,27.08,SSE,149,2.7,4.0,32,0.00,,---,0.00,VWS V14.01,2013-02-13 06:35:00,
2013-02-13 00:40:00,76.5,51.0,27.08,SSE,149,4.9,4.9,32,0.00,,---,0.00,VWS V14.01,2013-02-13 06:40:00,
2013-02-13 00:45:00,76.5,51.0,27.08,East,92,5.4,5.4,32,0.00,,---,0.00,VWS V14.01,2013-02-13 06:45:00,
2013-02-13 00:50:00,76.5,51.0,27.08,SE,131,6.3,6.3,32,0.00,,---,0.00,VWS V14.01,2013-02-13 06:50:00,
2013-02-13 00:55:00,76.5,51.0,27.05,South,170,3.6,3.6,32,0.00,,---,0.00,VWS V14.01,2013-02-13 06:55:00,
2013-02-13 01:00:00,76.5,51.0,27.05,South,173,0.0,4.0,32,0.00,,---,0.00,VWS V14.01,2013-02-13 07:00:00,
2013-02-13 01:05:00,76.5,51.0,27.05,ESE,121,2.7,2.7,32,0.00,,---,0.00,VWS V14.01,2013-02-13 07:05:00,
2013-02-13 01:10:00,76.5,51.0,27.05,SSE,162,3.1,3.1,32,0.00,,---,0.00,VWS V14.01,2013-02-13 07:10:00,
2013-02-13 01:15:00,76.5,51.0,27.05,SW,220,5.4,5.4,32,0.00,,---,0.00,VWS V14.01,2013-02-13 07:15:00,
2013-02-13 01:20:00,76.5,51.0,27.05,South,190,4.5,4.5,32,0.00,,---,0.00,VWS V14.01,2013-02-13 07:20:00,
2013-02-13 01:25:00,76.5,51.0,27.05,SSE,164,4.0,4.0,32,0.00,,---,0.00,VWS V14.01,2013-02-13 07:25:00,
2013-02-13 01:30:00,76.5,51.0,27.05,SSE,153,4.0,4.0,32,0.00,,---,0.00,VWS V14.01,2013-02-13 07:30:00,
2013-02-13 01:35:00,76.5,51.0,27.05,South,171,2.7,3.1,32,0.00,,---,0.00,VWS V14.01,2013-02-13 07:35:00,
2013-02-13 01:40:00,76.5,51.0,27.05,SSW,200,2.7,2.7,32,0.00,,---,0.00,VWS V14.01,2013-02-13 07:40:00,
2013-02-13 01:45:00,76.5,51.0,27.05,SSE,167,4.0,4.5,32,0.00,,---,0.00,VWS V14.01,2013-02-13 07:45:00,
2013-02-13 01:50:00,76.5,51.0,27.05,NNE,22,0.0,0.0,32,0.00,,---,0.00,VWS V14.01,2013-02-13 07:50:00,
2013-02-13 01:55:00,76.5,51.0,27.05,NNE,22,0.0,0.0,32,0.00,,---,0.00,VWS V14.01,2013-02-13 07:55:00,
2013-02-13 02:00:00,76.5,51.0,27.05,SSE,165,3.1,3.1,32,0.00,,---,0.00,VWS V14.01,2013-02-13 08:00:00,
2013-02-13 02:05:00,76.5,51.0,27.05,South,190,0.0,0.0,32,0.00,,---,0.00,VWS V14.01,2013-02-13 08:05:00,
2013-02-13 02:10:00,76.5,51.0,27.05,SE,145,2.2,2.2,32,0.00,,---,0.00,VWS V14.01,2013-02-13 08:10:00,
2013-02-13 02:15:00,76.5,51.0,27.05,SSE,161,0.0,0.0,32,0.00,,---,0.00,VWS V14.01,2013-02-13 08:15:00,
2013-02-13 02:20:00,76.5,51.0,27.05,SSE,168,0.0,0.0,32,0.00,,---,0.00,VWS V14.01,2013-02-13 08:20:00,
2013-02-13 02:25:00,76.5,51.0,27.05,SSE,168,0.0,0.0,32,0.00,,---,0.00,VWS V14.01,2013-02-13 08:25:00,
2013-02-13 02:30:00,76.5,51.0,27.05,SSW,192,3.6,4.0,32,0.00,,---,0.00,VWS V14.01,2013-02-13 08:30:00,
2013-02-13 02:35:00,76.5,51.0,27.05,East,83,10.1,10.1,32,0.00,,---,0.00,VWS V14.01,2013-02-13 08:35:00,
2013-02-13 02:40:00,76.5,51.0,27.02,SE,142,5.8,9.6,32,0.00,,---,0.00,VWS V14.01,2013-02-13 08:40:00,
2013-02-13 02:45:00,76.5,51.0,27.02,ESE,104,7.6,7.6,32,0.00,,---,0.00,VWS V14.01,2013-02-13 08:45:00,
2013-02-13 02:50:00,76.5,51.0,27.02,ESE,111,6.7,8.1,32,0.00,,---,0.00,VWS V14.01,2013-02-13 08:50:00,
2013-02-13 02:55:00,76.5,51.0,27.05,ESE,112,5.4,5.8,32,0.00,,---,0.00,VWS V14.01,2013-02-13 08:55:00,
2013-02-13 03:00:00,76.5,51.0,27.05,SE,131,4.5,8.7,32,0.00,,---,0.00,VWS V14.01,2013-02-13 09:00:00,
2013-02-13 03:05:00,76.5,51.0,27.05,East,101,8.7,8.7,32,0.00,,---,0.00,VWS V14.01,2013-02-13 09:05:00,
2013-02-13 03:10:00,76.5,51.0,27.02,SE,137,6.3,6.3,32,0.00,,---,0.00,VWS V14.01,2013-02-13 09:10:00,
2013-02-13 03:15:00,76.5,51.0,27.02,ESE,122,8.1,8.1,32,0.00,,---,0.00,VWS V14.01,2013-02-13 09:15:00,
2013-02-13 03:20:00,76.5,51.0,27.02,SE,129,5.4,9.6,32,0.00,,---,0.00,VWS V14.01,2013-02-13 09:20:00,
2013-02-13 03:25:00,76.5,51.0,27.05,ESE,123,5.4,10.5,32,0.00,,---,0.00,VWS V14.01,2013-02-13 09:25:00,
2013-02-13 03:30:00,76.5,51.0,27.05,SE,133,5.8,8.1,32,0.00,,---,0.00,VWS V14.01,2013-02-13 09:30:00,
2013-02-13 03:35:00,76.5,51.0,27.05,ENE,72,4.0,8.1,32,0.00,,---,0.00,VWS V14.01,2013-02-13 09:35:00,
2013-02-13 03:40:00,76.5,51.0,27.05,SE,125,7.6,10.1,32,0.00,,---,0.00,VWS V14.01,2013-02-13 09:40:00,
2013-02-13 03:45:00,76.5,51.0,27.05,East,94,5.8,5.8,32,0.00,,---,0.00,VWS V14.01,2013-02-13 09:45:00,
2013-02-13 03:50:00,76.5,51.0,27.05,SSW,204,5.8,5.8,32,0.00,,---,0.00,VWS V14.01,2013-02-13 09:50:00,
2013-02-13 03:55:00,76.5,51.0,27.02,ENE,64,3.1,5.4,32,0.00,,---,0.00,VWS V14.01,2013-02-13 09:55:00,
2013-02-13 04:00:00,76.5,51.0,27.02,ENE,63,3.6,6.3,32,0.00,,---,0.00,VWS V14.01,2013-02-13 10:00:00,
2013-02-13 04:05:00,76.5,51.0,27.02,ESE,121,5.8,5.8,32,0.00,,---,0.00,VWS V14.01,2013-02-13 10:05:00,
2013-02-13 04:10:00,76.5,51.0,27.02,ENE,78,4.9,9.6,32,0.00,,---,0.00,VWS V14.01,2013-02-13 10:10:00,
2013-02-13 04:15:00,76.5,51.0,27.02,SSE,162,8.1,8.7,32,0.00,,---,0.00,VWS V14.01,2013-02-13 10:15:00,
2013-02-13 04:20:00,76.5,51.0,27.02,South,184,9.6,10.5,32,0.00,,---,0.00,VWS V14.01,2013-02-13 10:20:00,
2013-02-13 04:25:00,76.5,51.0,27.05,SE,142,8.1,8.3,32,0.00,,---,0.00,VWS V14.01,2013-02-13 10:25:00,
2013-02-13 04:30:00,76.5,51.0,27.05,ESE,108,12.3,12.8,32,0.00,,---,0.00,VWS V14.01,2013-02-13 10:30:00,
2013-02-13 04:35:00,76.5,51.0,27.05,ESE,115,5.8,10.1,32,0.00,,---,0.00,VWS V14.01,2013-02-13 10:35:00,
2013-02-13 04:40:00,76.5,51.0,27.05,SE,129,4.9,7.2,32,0.00,,---,0.00,VWS V14.01,2013-02-13 10:40:00,
2013-02-13 04:45:00,76.5,51.0,27.05,SSE,164,11.9,11.9,32,0.00,,---,0.00,VWS V14.01,2013-02-13 10:45:00,
2013-02-13 04:50:00,76.5,51.0,27.05,SE,145,10.1,10.1,32,0.00,,---,0.00,VWS V14.01,2013-02-13 10:50:00,
2013-02-13 04:55:00,76.5,51.0,27.05,SE,141,5.8,11.0,32,0.00,,---,0.00,VWS V14.01,2013-02-13 10:55:00,
2013-02-13 05:00:00,76.5,51.0,27.05,SE,140,8.7,12.8,32,0.00,,---,0.00,VWS V14.01,2013-02-13 11:00:00,
2013-02-13 05:04:00,76.5,51.0,27.05,SE,140,11.9,11.9,32,0.00,,---,0.00,VWS V14.01,2013-02-13 11:04:00,
2013-02-13 05:09:00,76.5,51.0,27.05,SE,145,13.6,14.5,32,0.00,,---,0.00,VWS V14.01,2013-02-13 11:09:00,
2013-02-13 05:14:00,76.5,51.0,27.05,SE,135,5.4,8.1,32,0.00,,---,0.00,VWS V14.01,2013-02-13 11:14:00,
2013-02-13 05:19:00,76.5,51.0,27.05,SE,126,5.4,8.7,32,0.00,,---,0.00,VWS V14.01,2013-02-13 11:19:00,
2013-02-13 05:24:00,76.5,51.0,27.05,SE,127,8.1,8.7,32,0.00,,---,0.00,VWS V14.01,2013-02-13 11:24:00,
2013-02-13 05:29:00,76.5,51.0,27.05,ESE,120,4.9,12.8,32,0.00,,---,0.00,VWS V14.01,2013-02-13 11:29:00,
2013-02-13 05:34:00,76.5,51.0,27.05,SSE,154,5.4,10.1,32,0.00,,---,0.00,VWS V14.01,2013-02-13 11:34:00,
2013-02-13 05:39:00,76.5,51.0,27.05,SE,140,4.0,6.3,32,0.00,,---,0.00,VWS V14.01,2013-02-13 11:39:00,
2013-02-13 05:44:00,76.5,51.0,27.05,SE,139,5.4,7.6,32,0.00,,---,0.00,VWS V14.01,2013-02-13 11:44:00,
2013-02-13 05:49:00,76.5,51.0,27.05,ENE,73,5.8,5.8,32,0.00,,---,0.00,VWS V14.01,2013-02-13 11:49:00,
2013-02-13 05:54:00,76.5,51.0,27.05,SE,127,4.0,4.0,32,0.00,,---,0.00,VWS V14.01,2013-02-13 11:54:00,
2013-02-13 05:59:00,76.5,51.0,27.05,SE,143,4.5,5.4,32,0.00,,---,0.00,VWS V14.01,2013-02-13 11:59:00,
2013-02-13 06:04:00,76.5,51.0,27.05,East,101,5.4,8.3,32,0.00,,---,0.00,VWS V14.01,2013-02-13 12:04:00,
2013-02-13 06:09:00,76.5,51.0,27.05,SE,141,3.6,8.3,32,0.00,,---,0.00,VWS V14.01,2013-02-13 12:09:00,
2013-02-13 06:14:00,76.5,51.0,27.05,SE,142,4.9,8.1,32,0.00,,---,0.00,VWS V14.01,2013-02-13 12:14:00,
2013-02-13 06:19:00,76.5,51.0,27.05,SE,132,7.2,8.1,32,0.00,,---,0.00,VWS V14.01,2013-02-13 12:19:00,
2013-02-13 06:24:00,76.5,51.0,27.05,ESE,118,5.4,8.7,32,0.00,,---,0.00,VWS V14.01,2013-02-13 12:24:00,
2013-02-13 06:29:00,76.5,51.0,27.05,ESE,117,10.1,10.5,32,0.00,,---,0.00,VWS V14.01,2013-02-13 12:29:00,
2013-02-13 06:34:00,76.5,51.0,27.05,East,97,4.9,9.6,32,0.00,,---,0.00,VWS V14.01,2013-02-13 12:34:00,
2013-02-13 06:39:00,76.5,51.0,27.05,SE,142,7.2,7.2,32,0.00,,---,0.00,VWS V14.01,2013-02-13 12:39:00,
2013-02-13 06:44:00,76.5,51.0,27.05,West,277,4.0,5.4,32,0.00,,---,0.00,VWS V14.01,2013-02-13 12:44:00,
2013-02-13 06:49:00,76.5,51.0,27.05,South,177,3.1,6.3,32,0.00,,---,0.00,VWS V14.01,2013-02-13 12:49:00,
2013-02-13 06:54:00,76.5,51.0,27.05,SE,135,5.4,8.1,32,0.00,,---,0.00,VWS V14.01,2013-02-13 12:54:00,
2013-02-13 06:59:00,76.5,51.0,27.05,SE,136,5.4,5.4,32,0.00,,---,0.00,VWS V14.01,2013-02-13 12:59:00,
2013-02-13 07:04:00,76.5,51.0,27.05,East,81,4.0,4.0,32,0.00,,---,0.00,VWS V14.01,2013-02-13 13:04:00,
2013-02-13 07:09:00,76.5,51.0,27.08,SE,139,4.0,4.5,32,0.00,,---,0.00,VWS V14.01,2013-02-13 13:09:00,
2013-02-13 07:14:00,76.5,51.0,27.08,SE,134,2.7,4.9,32,0.00,,---,0.00,VWS V14.01,2013-02-13 13:14:00,
2013-02-13 07:19:00,76.5,51.0,27.08,ESE,113,5.4,5.4,32,0.00,,---,0.00,VWS V14.01,2013-02-13 13:19:00,
2013-02-13 07:24:00,76.5,51.0,27.08,ESE,113,8.1,8.1,32,0.00,,---,0.00,VWS V14.01,2013-02-13 13:24:00,
2013-02-13 07:29:00,76.5,51.0,27.08,SE,126,8.1,8.1,32,0.00,,---,0.00,VWS V14.01,2013-02-13 13:29:00,
2013-02-13 07:34:00,76.5,51.0,27.08,East,96,7.6,7.6,32,0.00,,---,0.00,VWS V14.01,2013-02-13 13:34:00,
2013-02-13 07:39:00,76.5,51.0,27.08,East,81,3.1,3.1,32,0.00,,---,0.00,VWS V14.01,2013-02-13 13:39:00,
2013-02-13 07:44:00,76.5,51.0,27.08,ESE,104,6.3,6.3,32,0.00,,---,0.00,VWS V14.01,2013-02-13 13:44:00,
2013-02-13 07:49:00,76.5,51.0,27.08,East,89,5.4,6.3,32,0.00,,---,0.00,VWS V14.01,2013-02-13 13:49:00,
2013-02-13 07:54:00,76.5,51.0,27.08,ESE,117,4.0,4.0,32,0.00,,---,0.00,VWS V14.01,2013-02-13 13:54:00,
2013-02-13 07:59:00,76.5,51.0,27.08,SE,127,2.7,5.4,32,0.00,,---,0.00,VWS V14.01,2013-02-13 13:59:00,
2013-02-13 08:04:00,76.5,51.0,27.08,SSE,166,0.0,3.6,32,0.00,,---,0.00,VWS V14.01,2013-02-13 14:04:00,
2013-02-13 08:09:00,76.5,51.0,27.08,NE,50,4.9,5.4,32,0.00,,---,0.00,VWS V14.01,2013-02-13 14:09:00,
2013-02-13 08:14:00,76.5,51.0,27.08,SSE,166,3.6,3.6,32,0.00,,---,0.00,VWS V14.01,2013-02-13 14:14:00,
2013-02-13 08:19:00,76.5,51.0,27.08,SW,229,5.4,8.1,32,0.00,,---,0.00,VWS V14.01,2013-02-13 14:19:00,
2013-02-13 08:24:00,76.5,51.0,27.08,SE,138,4.9,5.8,32,0.00,,---,0.00,VWS V14.01,2013-02-13 14:24:00,
2013-02-13 08:29:00,76.5,51.0,27.08,ESE,110,5.4,5.4,32,0.00,,---,0.00,VWS V14.01,2013-02-13 14:29:00,
2013-02-13 08:34:00,76.5,51.0,27.08,SSE,156,6.3,8.3,32,0.00,,---,0.00,VWS V14.01,2013-02-13 14:34:00,
2013-02-13 08:39:00,76.5,51.0,27.11,ESE,120,8.7,13.2,32,0.00,,---,0.00,VWS V14.01,2013-02-13 14:39:00,
2013-02-13 08:44:00,76.5,51.0,27.11,East,81,5.8,5.8,32,0.00,,---,0.00,VWS V14.01,2013-02-13 14:44:00,
2013-02-13 08:49:00,76.5,51.0,27.11,East,100,3.6,3.6,32,0.00,,---,0.00,VWS V14.01,2013-02-13 14:49:00,
2013-02-13 08:54:00,76.5,51.0,27.08,NE,52,8.3,9.6,32,0.00,,---,0.00,VWS V14.01,2013-02-13 14:54:00,
2013-02-13 08:59:00,76.5,51.0,27.08,ENE,74,4.9,10.5,32,0.00,,---,0.00,VWS V14.01,2013-02-13 14:59:00,
2013-02-13 09:04:00,76.5,51.0,27.08,ESE,110,7.6,7.6,32,0.00,,---,0.00,VWS V14.01,2013-02-13 15:04:00,
2013-02-13 09:09:00,76.5,51.0,27.11,SSE,150,6.3,7.6,32,0.00,,---,0.00,VWS V14.01,2013-02-13 15:09:00,
2013-02-13 09:14:00,76.5,51.0,27.11,ENE,65,8.1,8.1,32,0.00,,---,0.00,VWS V14.01,2013-02-13 15:14:00,
2013-02-13 09:19:00,76.5,51.0,27.11,SE,129,4.0,4.0,32,0.00,,---,0.00,VWS V14.01,2013-02-13 15:19:00,
2013-02-13 09:24:00,76.5,51.0,27.11,SE,138,3.6,3.6,32,0.00,,---,0.00,VWS V14.01,2013-02-13 15:24:00,
2013-02-13 09:29:00,76.5,51.0,27.11,SE,139,4.0,4.0,32,0.00,,---,0.00,VWS V14.01,2013-02-13 15:29:00,
2013-02-13 09:34:00,76.5,51.0,27.11,SSE,150,3.1,4.0,32,0.00,,---,0.00,VWS V14.01,2013-02-13 15:34:00,
2013-02-13 09:39:00,76.5,51.0,27.11,ESE,109,3.6,3.6,32,0.00,,---,0.00,VWS V14.01,2013-02-13 15:39:00,
2013-02-13 09:44:00,76.5,51.0,27.11,ENE,67,3.6,3.6,32,0.00,,---,0.00,VWS V14.01,2013-02-13 15:44:00,
2013-02-13 09:49:00,76.5,51.0,27.11,SE,128,5.4,6.3,32,0.00,,---,0.00,VWS V14.01,2013-02-13 15:49:00,
2013-02-13 09:54:00,76.5,51.0,27.11,East,84,3.1,3.1,32,0.00,,---,0.00,VWS V14.01,2013-02-13 15:54:00,
2013-02-13 09:59:00,76.5,51.0,27.11,ENE,74,5.8,5.8,32,0.00,,---,0.00,VWS V14.01,2013-02-13 15:59:00,
2013-02-13 10:04:00,76.5,51.0,27.11,East,94,4.9,5.4,32,0.00,,---,0.00,VWS V14.01,2013-02-13 16:04:00,
2013-02-13 10:09:00,76.5,51.0,27.11,SE,145,7.6,7.6,32,0.00,,---,0.00,VWS V14.01,2013-02-13 16:09:00,
2013-02-13 10:14:00,76.5,51.0,27.11,ESE,117,10.1,10.1,32,0.00,,---,0.00,VWS V14.01,2013-02-13 16:14:00,
2013-02-13 10:19:00,76.5,51.0,27.11,ESE,106,5.8,10.1,32,0.00,,---,0.00,VWS V14.01,2013-02-13 16:19:00,
2013-02-13 10:24:00,76.5,51.0,27.11,ENE,61,5.4,5.4,32,0.00,,---,0.00,VWS V14.01,2013-02-13 16:24:00,
2013-02-13 10:29:00,76.5,51.0,27.11,East,96,6.7,6.7,32,0.00,,---,0.00,VWS V14.01,2013-02-13 16:29:00,
2013-02-13 10:34:00,76.5,51.0,27.11,ENE,66,5.4,5.4,32,0.00,,---,0.00,VWS V14.01,2013-02-13 16:34:00,
2013-02-13 10:39:00,76.5,51.0,27.11,NE,49,4.9,4.9,32,0.00,,---,0.00,VWS V14.01,2013-02-13 16:39:00,
2013-02-13 10:44:00,76.5,51.0,27.11,ESE,123,3.6,3.6,32,0.00,,---,0.00,VWS V14.01,2013-02-13 16:44:00,
2013-02-13 10:49:00,76.5,51.0,27.11,ESE,114,5.4,5.4,32,0.00,,---,0.00,VWS V14.01,2013-02-13 16:49:00,
2013-02-13 10:54:00,76.5,51.0,27.11,East,86,5.4,5.8,32,0.00,,---,0.00,VWS V14.01,2013-02-13 16:54:00,
2013-02-13 10:59:00,76.5,51.0,27.11,East,80,4.0,4.0,32,0.00,,---,0.00,VWS V14.01,2013-02-13 16:59:00,
2013-02-13 11:04:00,76.5,51.0,27.11,SE,141,3.6,7.6,32,0.00,,---,0.00,VWS V14.01,2013-02-13 17:04:00,
2013-02-13 11:09:00,76.5,51.0,27.08,NNW,327,2.7,3.1,32,0.00,,---,0.00,VWS V14.01,2013-02-13 17:09:00,
2013-02-13 11:14:00,76.5,51.0,27.08,ENE,71,7.6,7.6,32,0.00,,---,0.00,VWS V14.01,2013-02-13 17:14:00,
2013-02-13 11:19:00,76.5,51.0,27.08,South,171,2.7,5.8,32,0.00,,---,0.00,VWS V14.01,2013-02-13 17:19:00,
2013-02-13 11:24:00,76.5,51.0,27.08,East,97,2.7,2.7,32,0.00,,---,0.00,VWS V14.01,2013-02-13 17:24:00,
2013-02-13 11:29:00,76.5,51.0,27.08,South,181,0.0,0.0,32,0.00,,---,0.00,VWS V14.01,2013-02-13 17:29:00,
2013-02-13 11:34:00,76.5,51.0,27.08,South,170,2.7,3.1,32,0.00,,---,0.00,VWS V14.01,2013-02-13 17:34:00,
2013-02-13 11:39:00,76.5,51.0,27.08,ENE,71,3.6,3.6,32,0.00,,---,0.00,VWS V14.01,2013-02-13 17:39:00,
2013-02-13 11:44:00,76.5,51.0,27.08,NE,56,5.4,5.8,32,0.00,,---,0.00,VWS V14.01,2013-02-13 17:44:00,
2013-02-13 11:49:00,76.5,51.0,27.08,ENE,64,2.7,4.9,32,0.00,,---,0.00,VWS V14.01,2013-02-13 17:49:00,
2013-02-13 11:54:00,76.5,51.0,27.08,ENE,75,2.2,2.7,32,0.00,,---,0.00,VWS V14.01,2013-02-13 17:54:00,
2013-02-13 11:59:00,76.5,51.0,27.08,SE,127,3.1,3.1,32,0.00,,---,0.00,VWS V14.01,2013-02-13 17:59:00,
2013-02-13 12:04:00,76.5,51.0,27.08,ENE,66,2.7,2.7,32,0.00,,---,0.00,VWS V14.01,2013-02-13 18:04:00,
2013-02-13 12:09:00,76.5,51.0,27.08,East,97,0.0,3.1,32,0.00,,---,0.00,VWS V14.01,2013-02-13 18:09:00,
2013-02-13 12:14:00,76.5,51.0,27.08,East,92,0.0,0.0,32,0.00,,---,0.00,VWS V14.01,2013-02-13 18:14:00,
2013-02-13 12:19:00,76.5,51.0,27.08,SSE,158,2.2,2.2,32,0.00,,---,0.00,VWS V14.01,2013-02-13 18:19:00,
2013-02-13 12:24:00,76.5,51.0,27.08,SE,137,0.0,0.0,32,0.00,,---,0.00,VWS V14.01,2013-02-13 18:24:00,
2013-02-13 12:29:00,76.5,51.0,27.08,WNW,299,0.0,0.0,32,0.00,,---,0.00,VWS V14.01,2013-02-13 18:29:00,
2013-02-13 12:34:00,76.5,51.0,27.08,ENE,63,3.1,3.6,32,0.00,,---,0.00,VWS V14.01,2013-02-13 18:34:00,
2013-02-13 12:39:00,76.5,51.0,27.05,SSE,154,0.0,2.2,32,0.00,,---,0.00,VWS V14.01,2013-02-13 18:39:00,
2013-02-13 12:44:00,76.5,51.0,27.05,North,353,4.0,4.0,32,0.00,,---,0.00,VWS V14.01,2013-02-13 18:44:00,
2013-02-13 12:49:00,76.5,51.0,27.05,NE,53,0.0,2.7,32,0.00,,---,0.00,VWS V14.01,2013-02-13 18:49:00,
2013-02-13 12:54:00,76.5,51.0,27.08,NW,325,0.0,0.0,32,0.00,,---,0.00,VWS V14.01,2013-02-13 18:54:00,
2013-02-13 12:59:00,76.5,51.0,27.08,ENE,58,0.0,0.0,32,0.00,,---,0.00,VWS V14.01,2013-02-13 18:59:00,
2013-02-13 13:04:00,76.5,51.0,27.08,ESE,102,5.4,5.4,32,0.00,,---,0.00,VWS V14.01,2013-02-13 19:04:00,
2013-02-13 13:09:00,76.5,51.0,27.05,NE,51,0.0,0.0,32,0.00,,---,0.00,VWS V14.01,2013-02-13 19:09:00,
2013-02-13 13:14:00,76.5,51.0,27.05,ENE,59,6.3,6.3,32,0.00,,---,0.00,VWS V14.01,2013-02-13 19:14:00,
2013-02-13 13:19:00,76.5,51.0,27.05,NE,42,3.6,5.4,32,0.00,,---,0.00,VWS V14.01,2013-02-13 19:19:00,
2013-02-13 13:24:00,76.5,51.0,27.05,NNW,341,0.0,0.0,32,0.00,,---,0.00,VWS V14.01,2013-02-13 19:24:00,
2013-02-13 13:29:00,76.5,51.0,27.05,NW,310,2.2,3.1,32,0.00,,---,0.00,VWS V14.01,2013-02-13 19:29:00,
2013-02-13 13:34:00,76.5,51.0,27.05,WSW,258,6.3,6.3,32,0.00,,---,0.00,VWS V14.01,2013-02-13 19:34:00,
2013-02-13 13:39:00,76.5,51.0,27.05,NW,317,4.9,5.4,32,0.00,,---,0.00,VWS V14.01,2013-02-13 19:39:00,
2013-02-13 13:44:00,76.5,51.0,27.05,NW,310,8.1,8.1,32,0.00,,---,0.00,VWS V14.01,2013-02-13 19:44:00,
2013-02-13 13:49:00,76.5,51.0,27.05,NW,315,3.6,4.9,32,0.00,,---,0.00,VWS V14.01,2013-02-13 19:49:00,
2013-02-13 13:54:00,76.5,51.0,27.05,SSW,199,3.1,3.1,32,0.00,,---,0.00,VWS V14.01,2013-02-13 19:54:00,
2013-02-13 13:59:00,76.5,51.0,27.05,WNW,289,4.0,4.0,32,0.00,,---,0.00,VWS V14.01,2013-02-13 19:59:00,
2013-02-13 14:04:00,76.5,51.0,27.05,NW,309,2.7,2.7,32,0.00,,---,0.00,VWS V14.01,2013-02-13 20:04:00,
2013-02-13 14:09:00,76.5,51.0,27.05,West,262,3.1,5.4,32,0.00,,---,0.00,VWS V14.01,2013-02-13 20:09:00,
2013-02-13 14:14:00,76.5,51.0,27.05,NW,311,8.1,8.1,32,0.00,,---,0.00,VWS V14.01,2013-02-13 20:14:00,
2013-02-13 14:19:00,76.5,51.0,27.05,NW,319,4.9,5.4,32,0.00,,---,0.00,VWS V14.01,2013-02-13 20:19:00,
2013-02-13 14:24:00,76.5,51.0,27.02,SW,215,8.7,8.7,32,0.00,,---,0.00,VWS V14.01,2013-02-13 20:24:00,
2013-02-13 14:29:00,76.5,51.0,27.02,NNW,334,2.7,6.3,32,0.00,,---,0.00,VWS V14.01,2013-02-13 20:29:00,
2013-02-13 14:34:00,76.5,51.0,27.02,West,280,7.6,7.6,32,0.00,,---,0.00,VWS V14.01,2013-02-13 20:34:00,
2013-02-13 14:39:00,76.5,51.0,27.02,WNW,299,5.8,5.8,32,0.00,,---,0.00,VWS V14.01,2013-02-13 20:39:00,
2013-02-13 14:44:00,76.5,51.0,27.02,SW,227,5.8,5.8,32,0.00,,---,0.00,VWS V14.01,2013-02-13 20:44:00,
2013-02-13 14:49:00,76.5,51.0,27.02,SE,138,0.0,5.8,32,0.00,,---,0.00,VWS V14.01,2013-02-13 20:49:00,
2013-02-13 14:54:00,76.5,51.0,27.02,SW,232,5.4,6.3,32,0.00,,---,0.00,VWS V14.01,2013-02-13 20:54:00,
2013-02-13 14:59:00,76.5,51.0,27.02,SSW,205,8.3,8.3,32,0.00,,---,0.00,VWS V14.01,2013-02-13 20:59:00,
2013-02-13 15:04:00,76.5,51.0,27.02,WNW,285,5.8,8.1,32,0.00,,---,0.00,VWS V14.01,2013-02-13 21:04:00,
2013-02-13 15:09:00,76.5,51.0,27.02,SSW,213,4.9,4.9,32,0.00,,---,0.00,VWS V14.01,2013-02-13 21:09:00,
2013-02-13 15:14:00,76.5,51.0,27.02,SW,234,6.3,6.3,32,0.00,,---,0.00,VWS V14.01,2013-02-13 21:14:00,
2013-02-13 15:19:00,76.5,51.0,27.02,WSW,245,2.7,3.6,32,0.00,,---,0.00,VWS V14.01,2013-02-13 21:19:00,
2013-02-13 15:24:00,76.5,51.0,27.02,SSE,158,3.6,3.6,32,0.00,,---,0.00,VWS V14.01,2013-02-13 21:24:00,
2013-02-13 15:29:00,76.5,51.0,27.02,South,184,3.1,3.1,32,0.00,,---,0.00,VWS V14.01,2013-02-13 21:29:00,
2013-02-13 15:34:00,76.5,51.0,27.02,SW,216,7.6,9.6,32,0.00,,---,0.00,VWS V14.01,2013-02-13 21:34:00,
2013-02-13 15:39:00,76.5,51.0,27.02,WSW,256,8.1,8.1,32,0.00,,---,0.00,VWS V14.01,2013-02-13 21:39:00,
2013-02-13 15:44:00,76.5,51.0,27.02,South,185,8.3,8.3,32,0.00,,---,0.00,VWS V14.01,2013-02-13 21:44:00,
2013-02-13 15:49:00,76.5,51.0,27.02,SW,217,8.1,11.4,32,0.00,,---,0.00,VWS V14.01,2013-02-13 21:49:00,
2013-02-13 15:54:00,76.5,51.0,27.02,SW,221,2.2,4.9,32,0.00,,---,0.00,VWS V14.01,2013-02-13 21:54:00,
2013-02-13 15:59:00,76.5,51.0,27.02,South,190,4.9,4.9,32,0.00,,---,0.00,VWS V14.01,2013-02-13 21:59:00,
2013-02-13 16:04:00,76.5,51.0,27.02,SW,221,4.9,4.9,32,0.00,,---,0.00,VWS V14.01,2013-02-13 22:04:00,
2013-02-13 16:09:00,76.5,51.0,27.02,South,172,3.1,3.1,32,0.00,,---,0.00,VWS V14.01,2013-02-13 22:09:00,
2013-02-13 16:14:00,76.5,51.0,27.02,SSW,213,3.1,3.1,32,0.00,,---,0.00,VWS V14.01,2013-02-13 22:14:00,
2013-02-13 16:19:00,76.5,51.0,27.02,SW,214,5.4,5.8,32,0.00,,---,0.00,VWS V14.01,2013-02-13 22:19:00,
2013-02-13 16:24:00,76.5,51.0,27.02,West,267,4.5,5.8,32,0.00,,---,0.00,VWS V14.01,2013-02-13 22:24:00,
2013-02-13 16:29:00,76.5,51.0,27.02,WNW,299,4.0,6.3,32,0.00,,---,0.00,VWS V14.01,2013-02-13 22:29:00,
2013-02-13 16:34:00,76.5,51.0,27.02,SW,231,8.1,8.1,32,0.00,,---,0.00,VWS V14.01,2013-02-13 22:34:00,
2013-02-13 16:39:00,76.5,51.0,27.02,South,177,5.4,6.3,32,0.00,,---,0.00,VWS V14.01,2013-02-13 22:39:00,
2013-02-13 16:44:00,76.5,51.0,27.02,SSW,193,5.4,5.4,32,0.00,,---,0.00,VWS V14.01,2013-02-13 22:44:00,
2013-02-13 16:49:00,76.5,51.0,27.02,South,180,4.9,6.3,32,0.00,,---,0.00,VWS V14.01,2013-02-13 22:49:00,
2013-02-13 16:54:00,76.5,51.0,27.05,West,278,2.7,4.0,32,0.00,,---,0.00,VWS V14.01,2013-02-13 22:54:00,
2013-02-13 16:59:00,76.5,51.0,27.05,West,261,3.6,3.6,32,0.00,,---,0.00,VWS V14.01,2013-02-13 22:59:00,
2013-02-13 17:04:00,76.5,51.0,27.05,SW,230,7.2,7.2,32,0.00,,---,0.00,VWS V14.01,2013-02-13 23:04:00,
2013-02-13 17:09:00,76.5,51.0,27.05,SSW,213,4.0,4.0,32,0.00,,---,0.00,VWS V14.01,2013-02-13 23:09:00,
2013-02-13 17:14:00,76.5,51.0,27.05,WSW,246,5.8,5.8,32,0.00,,---,0.00,VWS V14.01,2013-02-13 23:14:00,
2013-02-13 17:19:00,76.5,51.0,27.05,SW,216,3.1,5.4,32,0.00,,---,0.00,VWS V14.01,2013-02-13 23:19:00,
2013-02-13 17:24:00,76.5,51.0,27.02,WSW,241,3.1,3.1,32,0.00,,---,0.00,VWS V14.01,2013-02-13 23:24:00,
2013-02-13 17:29:00,76.5,51.0,27.02,SW,214,3.6,5.4,32,0.00,,---,0.00,VWS V14.01,2013-02-13 23:29:00,
2013-02-13 17:34:00,76.5,51.0,27.02,SSW,200,4.0,4.0,32,0.00,,---,0.00,VWS V14.01,2013-02-13 23:34:00,
2013-02-13 17:39:00,76.5,51.0,27.05,SSW,211,2.7,2.7,32,0.00,,---,0.00,VWS V14.01,2013-02-13 23:39:00,
2013-02-13 17:44:00,76.5,51.0,27.05,ENE,76,0.0,2.2,32,0.00,,---,0.00,VWS V14.01,2013-02-13 23:44:00,
2013-02-13 17:49:00,76.5,51.0,27.05,WNW,290,3.6,3.6,32,0.00,,---,0.00,VWS V14.01,2013-02-13 23:49:00,
2013-02-13 17:54:00,76.5,51.0,27.05,SW,233,2.2,2.2,32,0.00,,---,0.00,VWS V14.01,2013-02-13 23:54:00,
2013-02-13 17:59:00,76.5,51.0,27.05,SSW,206,0.0,0.0,32,0.00,,---,0.00,VWS V14.01,2013-02-13 23:59:00,
2013-02-13 18:04:00,76.5,51.0,27.05,West,264,0.0,0.0,32,0.00,,---,0.00,VWS V14.01,2013-02-14 00:04:00,
2013-02-13 18:09:00,76.5,51.0,27.05,SW,227,0.0,0.0,32,0.00,,---,0.00,VWS V14.01,2013-02-14 00:09:00,
2013-02-13 18:14:00,76.5,51.0,27.05,NE,53,5.4,5.4,32,0.00,,---,0.00,VWS V14.01,2013-02-14 00:14:00,
2013-02-13 18:19:00,76.5,51.0,27.05,SE,130,2.7,3.1,32,0.00,,---,0.00,VWS V14.01,2013-02-14 00:19:00,
2013-02-13 18:24:00,76.5,51.0,27.05,SE,133,2.7,3.1,32,0.00,,---,0.00,VWS V14.01,2013-02-14 00:24:00,
2013-02-13 18:29:00,76.5,51.0,27.05,East,89,4.9,4.9,32,0.00,,---,0.00,VWS V14.01,2013-02-14 00:29:00,
2013-02-13 18:34:00,76.5,51.0,27.05,NE,43,2.7,3.6,32,0.00,,---,0.00,VWS V14.01,2013-02-14 00:34:00,
2013-02-13 18:39:00,76.5,51.0,27.05,NE,53,3.1,3.1,32,0.00,,---,0.00,VWS V14.01,2013-02-14 00:39:00,
2013-02-13 18:44:00,76.5,51.0,27.05,East,84,3.6,3.6,32,0.00,,---,0.00,VWS V14.01,2013-02-14 00:44:00,
2013-02-13 18:49:00,76.5,51.0,27.05,East,82,0.0,0.0,32,0.00,,---,0.00,VWS V14.01,2013-02-14 00:49:00,
2013-02-13 18:54:00,76.5,51.0,27.05,East,82,0.0,0.0,32,0.00,,---,0.00,VWS V14.01,2013-02-14 00:54:00,
2013-02-13 18:59:00,76.5,51.0,27.05,East,82,0.0,0.0,32,0.00,,---,0.00,VWS V14.01,2013-02-14 00:59:00,
2013-02-13 19:04:00,76.5,51.0,27.05,East,82,0.0,0.0,32,0.00,,---,0.00,VWS V14.01,2013-02-14 01:04:00,
2013-02-13 19:09:00,76.5,51.0,27.05,East,82,0.0,0.0,32,0.00,,---,0.00,VWS V14.01,2013-02-14 01:09:00,
2013-02-13 19:14:00,76.5,51.0,27.05,SE,134,2.7,2.7,32,0.00,,---,0.00,VWS V14.01,2013-02-14 01:14:00,
2013-02-13 19:19:00,76.5,51.0,27.05,SSE,153,2.7,4.9,32,0.00,,---,0.00,VWS V14.01,2013-02-14 01:19:00,
2013-02-13 19:24:00,76.5,51.0,27.08,ESE,116,0.0,0.0,32,0.00,,---,0.00,VWS V14.01,2013-02-14 01:24:00,
2013-02-13 19:29:00,76.5,51.0,27.08,ESE,110,2.7,2.7,32,0.00,,---,0.00,VWS V14.01,2013-02-14 01:29:00,
2013-02-13 19:34:00,76.5,51.0,27.08,ESE,112,2.2,2.2,32,0.00,,---,0.00,VWS V14.01,2013-02-14 01:34:00,
2013-02-13 19:39:00,76.5,51.0,27.08,East,91,0.0,0.0,32,0.00,,---,0.00,VWS V14.01,2013-02-14 01:39:00,
2013-02-13 19:44:00,76.5,51.0,27.08,NE,38,2.7,3.1,32,0.00,,---,0.00,VWS V14.01,2013-02-14 01:44:00,
2013-02-13 19:49:00,76.5,51.0,27.08,East,86,2.7,3.1,32,0.00,,---,0.00,VWS V14.01,2013-02-14 01:49:00,
2013-02-13 19:54:00,76.5,51.0,27.08,SE,136,3.1,3.1,32,0.00,,---,0.00,VWS V14.01,2013-02-14 01:54:00,
2013-02-13 19:58:00,76.5,51.0,27.08,SSW,203,0.0,0.0,32,0.00,,---,0.00,VWS V14.01,2013-02-14 01:58:00,
2013-02-13 20:04:00,76.5,51.0,27.08,South,174,0.0,0.0,32,0.00,,---,0.00,VWS V14.01,2013-02-14 02:04:00,
2013-02-13 20:08:00,76.5,51.0,27.08,South,181,0.0,0.0,32,0.00,,---,0.00,VWS V14.01,2013-02-14 02:08:00,
2013-02-13 20:13:00,76.5,51.0,27.08,South,179,0.0,0.0,32,0.00,,---,0.00,VWS V14.01,2013-02-14 02:13:00,
2013-02-13 20:18:00,76.5,51.0,27.08,South,179,0.0,0.0,32,0.00,,---,0.00,VWS V14.01,2013-02-14 02:18:00,
2013-02-13 20:24:00,76.5,51.0,27.08,South,175,0.0,0.0,32,0.00,,---,0.00,VWS V14.01,2013-02-14 02:24:00,
2013-02-13 20:29:00,76.5,51.0,27.08,South,175,0.0,0.0,32,0.00,,---,0.00,VWS V14.01,2013-02-14 02:29:00,
2013-02-13 20:34:00,76.5,51.0,27.08,South,175,0.0,0.0,32,0.00,,---,0.00,VWS V14.01,2013-02-14 02:34:00,
2013-02-13 20:39:00,76.5,51.0,27.08,South,175,0.0,0.0,32,0.00,,---,0.00,VWS V14.01,2013-02-14 02:39:00,
2013-02-13 20:44:00,76.5,51.0,27.08,SSE,151,0.0,2.7,32,0.00,,---,0.00,VWS V14.01,2013-02-14 02:44:00,
2013-02-13 20:49:00,76.5,51.0,27.08,SSE,151,0.0,0.0,32,0.00,,---,0.00,VWS V14.01,2013-02-14 02:49:00,
2013-02-13 20:54:00,76.5,51.0,27.08,SSE,151,0.0,0.0,32,0.00,,---,0.00,VWS V14.01,2013-02-14 02:54:00,
2013-02-13 20:59:00,76.5,51.0,27.08,East,93,0.0,0.0,32,0.00,,---,0.00,VWS V14.01,2013-02-14 02:59:00,
2013-02-13 21:04:00,76.5,51.0,27.08,South,183,0.0,3.6,32,0.00,,---,0.00,VWS V14.01,2013-02-14 03:04:00,
2013-02-13 21:08:00,76.5,51.0,27.08,East,89,2.7,2.7,32,0.00,,---,0.00,VWS V14.01,2013-02-14 03:08:00,
2013-02-13 21:13:00,76.5,51.0,27.08,East,101,3.1,3.1,32,0.00,,---,0.00,VWS V14.01,2013-02-14 03:13:00,
2013-02-13 21:18:00,76.5,51.0,27.08,East,82,0.0,2.2,32,0.00,,---,0.00,VWS V14.01,2013-02-14 03:18:00,
2013-02-13 21:23:00,76.5,51.0,27.08,SSE,165,3.1,3.1,32,0.00,,---,0.00,VWS V14.01,2013-02-14 03:23:00,
2013-02-13 21:28:00,76.5,51.0,27.08,SSE,156,0.0,0.0,32,0.00,,---,0.00,VWS V14.01,2013-02-14 03:28:00,
2013-02-13 21:33:00,76.5,51.0,27.08,SSE,166,0.0,0.0,32,0.00,,---,0.00,VWS V14.01,2013-02-14 03:33:00,
2013-02-13 21:38:00,76.5,51.0,27.11,East,99,0.0,0.0,32,0.00,,---,0.00,VWS V14.01,2013-02-14 03:38:00,
2013-02-13 21:43:00,76.5,51.0,27.11,North,353,0.0,0.0,32,0.00,,---,0.00,VWS V14.01,2013-02-14 03:43:00,
2013-02-13 21:48:00,76.5,51.0,27.11,ENE,57,0.0,0.0,32,0.00,,---,0.00,VWS V14.01,2013-02-14 03:48:00,
2013-02-13 21:53:00,76.5,51.0,27.11,ENE,60,0.0,0.0,32,0.00,,---,0.00,VWS V14.01,2013-02-14 03:53:00,
2013-02-13 21:58:00,76.5,51.0,27.11,ENE,68,0.0,0.0,32,0.00,,---,0.00,VWS V14.01,2013-02-14 03:58:00,
2013-02-13 22:03:00,76.5,51.0,27.11,ENE,68,0.0,0.0,32,0.00,,---,0.00,VWS V14.01,2013-02-14 04:03:00,
2013-02-13 22:08:00,76.5,51.0,27.11,ENE,68,0.0,0.0,32,0.00,,---,0.00,VWS V14.01,2013-02-14 04:08:00,
2013-02-13 22:13:00,76.5,51.0,27.11,ENE,68,0.0,0.0,32,0.00,,---,0.00,VWS V14.01,2013-02-14 04:13:00,
2013-02-13 22:18:00,76.5,51.0,27.11,ENE,68,0.0,0.0,32,0.00,,---,0.00,VWS V14.01,2013-02-14 04:18:00,
2013-02-13 22:23:00,76.5,51.0,27.11,ENE,68,0.0,0.0,32,0.00,,---,0.00,VWS V14.01,2013-02-14 04:23:00,
2013-02-13 22:28:00,76.5,51.0,27.11,ENE,68,0.0,0.0,32,0.00,,---,0.00,VWS V14.01,2013-02-14 04:28:00,
2013-02-13 22:33:00,76.5,51.0,27.11,ENE,76,0.0,0.0,32,0.00,,---,0.00,VWS V14.01,2013-02-14 04:33:00,
2013-02-13 22:38:00,76.5,51.0,27.11,East,99,2.7,5.8,32,0.00,,---,0.00,VWS V14.01,2013-02-14 04:38:00,
2013-02-13 22:43:00,76.5,51.0,27.11,East,96,5.8,5.8,32,0.00,,---,0.00,VWS V14.01,2013-02-14 04:43:00,
2013-02-13 22:48:00,76.5,51.0,27.11,ESE,117,0.0,0.0,32,0.00,,---,0.00,VWS V14.01,2013-02-14 04:48:00,
2013-02-13 22:53:00,76.5,51.0,27.08,East,99,0.0,3.6,32,0.00,,---,0.00,VWS V14.01,2013-02-14 04:53:00,
2013-02-13 22:58:00,76.5,51.0,27.08,SSE,153,0.0,0.0,32,0.00,,---,0.00,VWS V14.01,2013-02-14 04:58:00,
2013-02-13 23:00:00,76.5,51.0,27.08,SSE,152,0.0,0.0,32,0.00,,---,0.00,VWS V14.01,2013-02-14 05:00:00,
2013-02-13 23:05:00,76.5,51.0,27.08,ESE,105,0.0,0.0,32,0.00,,---,0.00,VWS V14.01,2013-02-14 05:05:00,
2013-02-13 23:10:00,76.5,51.0,27.11,ESE,105,0.0,0.0,32,0.00,,---,0.00,VWS V14.01,2013-02-14 05:10:00,
2013-02-13 23:15:00,76.5,51.0,27.11,SE,139,0.0,0.0,32,0.00,,---,0.00,VWS V14.01,2013-02-14 05:15:00,
2013-02-13 23:20:00,76.5,51.0,27.11,SSW,207,0.0,0.0,32,0.00,,---,0.00,VWS V14.01,2013-02-14 05:20:00,
2013-02-13 23:25:00,76.5,51.0,27.11,SSW,207,0.0,0.0,32,0.00,,---,0.00,VWS V14.01,2013-02-14 05:25:00,
2013-02-13 23:30:00,76.5,51.0,27.11,SSW,207,0.0,0.0,32,0.00,,---,0.00,VWS V14.01,2013-02-14 05:30:00,
2013-02-13 23:35:00,76.5,51.0,27.11,SSW,207,0.0,0.0,32,0.00,,---,0.00,VWS V14.01,2013-02-14 05:35:00,
2013-02-13 23:40:00,76.5,51.0,27.08,SSW,207,0.0,0.0,32,0.00,,---,0.00,VWS V14.01,2013-02-14 05:40:00,
2013-02-13 23:45:00,76.5,51.0,27.08,South,191,0.0,0.0,32,0.00,,---,0.00,VWS V14.01,2013-02-14 05:45:00,
2013-02-13 23:50:00,76.5,51.0,27.08,South,191,0.0,0.0,32,0.00,,---,0.00,VWS V14.01,2013-02-14 05:50:00,
2013-02-13 23:55:00,76.5,51.0,27.08,South,191,0.0,0.0,32,0.00,,---,0.00,VWS V14.01,2013-02-14 05:55:00,